[[{"header":{"parameterUnit":"m.s-1","parameterCategory":1,"la1":30.2991,"la2":30.254,"lo1":-89.0895,"lo2":-89.0444,"dy":0.0017,"dx":0.0017,"nx":28,"ny":28,"refTime":"2023-09-15T03:00:00:Z","depth":0,"parameterNumber":2,"parameterNumberName":"U-component_of_WINDS"},"data":[0,0,0,0,0,0,0,0,0,0,0,0,0,0,0,0,0,0,0,0,0,0,0,0,0,0,0,0,0,0,0,0,0,0,0,0,0,0,0,0,0,0,0,0,0,0,0,0,0,0,0,0,0,0,0,0,0,0,0.942,0.9421,0,0.9547,0.9549,0.955,0.9582,0.9582,0.9581,0.958,0.9714,0.9718,0.9723,0,0,0,0,0,0,0,0,0,0,0,0,0,0.9209,0.9212,0.942,0.9422,0.9423,0.9547,0.9549,0.955,0.9583,0.9582,0.9581,0.958,0.9713,0.9718,0.9723,0,0,0,0,0,0,0,0,0,0,0,0,0,0.9315,0.9214,0.942,0.9454,0.9458,0.9547,0.9549,0.9551,0.9583,0.9581,0.958,0.9579,0.9711,0.9717,0.9724,0.9788,0,0,0.9744,0.9746,0,0,0,0,0,0,0,0,0.9309,0.9322,0.9447,0.9452,0.9457,0.9548,0.9523,0.9631,0.9583,0.9536,0.958,0.9579,0.966,0.9671,0.9697,0.9794,0.98,0.9744,0.9748,0.9751,0.9753,0,0,0,0,0,0,0,0.9301,0.9317,0.947,0.9449,0.9455,0.9464,0.9478,0.9544,0.9603,0.954,0.9542,0.9557,0.9662,0.9691,0.9701,0.9802,0.9744,0.975,0.9754,0.9756,0.9958,0.9959,0,0,0,0,0,0,0.9287,0.9311,0.9466,0.9474,0.9378,0.9469,0.9484,0.952,0.9603,0.9614,0.9558,0.9558,0.968,0.9693,0.9705,0.9786,0.9751,0.9757,0.9761,0.9957,0.9958,0.996,0,0,0,0,0,0,0.9283,0.9301,0.9461,0.9393,0.9414,0.9474,0.9513,0.9523,0.9551,0.9616,0.9627,0.9576,0.968,0.9696,0.9767,0.9791,0.976,0.9766,0.9955,0.9957,0.9959,0.9947,0,0,0,0,0,0,0.9277,0.9299,0.9323,0.9393,0.9418,0.9519,0.9515,0.9526,0.9562,0.9563,0.9636,0.9647,0.968,0.9757,0.9773,0.9799,0.9771,0.9953,0.9956,0.9958,0.9945,0.9948,0.9951,0,0,0,0,0,0.9269,0.9316,0.9324,0.9343,0.9449,0.9521,0.9535,0.9571,0.9564,0.9589,0.9631,0.9644,0.9785,0.9764,0.9783,0.9811,0.9952,0.9955,0.9958,0.9944,0.9948,0.9951,0,0,0,0,0,0,0.9248,0.9326,0.9336,0.9407,0.9457,0.9526,0.9559,0.9574,0.9628,0.9627,0.9672,0.9688,0.9755,0.979,0.9765,0.9877,0.9869,0.9876,0.9852,0.9856,0.9858,0.9848,0.9776,0,0,0,0,0,0.9252,0.9302,0.9368,0.9424,0.9448,0.9499,0.9532,0.9555,0.9609,0.9631,0.9678,0.9731,0.9787,0.9823,0.9879,0.9951,0.9967,0.9979,0.9982,0.9984,0.9989,1.003,1.0036,0.9971,0.9971,0.9971,0,0,0.926,0.9308,0.9338,0.9421,0.9462,0.9514,0.9517,0.9572,0.9611,0.964,0.9709,0.9745,0.9807,0.9878,0.9912,0.991,1.0011,0.9988,0.9989,0.9994,1.0034,1.004,1.0045,0.9973,0.9973,0.9972,0,0,0.9301,0.9343,0.9394,0.9435,0.9497,0.9531,0.9543,0.961,0.9635,0.9704,0.9726,0.9775,0.9871,0.9914,0.9948,1.0005,1.002,1.0022,1.0036,1.0075,1.008,1.0085,1.0105,1.0111,1.0028,1.0028,1.0028,0,0.9303,0.9382,0.9418,0.9472,0.9508,0.9535,0.9587,0.9626,0.9704,0.9728,0.9724,0.9845,0.9889,0.997,0.9984,1.0011,1.0027,1.0014,1.0076,1.0081,1.0086,1.0106,1.0113,1.0028,1.0028,1.0028,1.0028,0,0.9381,0.9435,0.9469,0.9542,0.9582,0.9635,0.968,0.9717,0.9737,0.9771,0.9841,0.9895,0.9961,0.9982,1.0003,1.0067,1.0063,1.0067,1.006,1.0092,1.0111,1.0118,1.0027,1.0027,1.0027,1.0027,0,0,0.9413,0.9505,0.9516,0.9549,0.962,0.9663,0.9717,0.9781,0.9811,0.9864,0.9911,0.9991,0.9995,1.0034,1.006,1.0094,1.0135,1.0094,1.0096,1.0099,1.0207,1.0203,1.0211,1.0145,1.0147,1.0148,1.0202,0,0.9462,0.9559,0.9593,0.9673,0.9724,0.975,0.9797,0.9846,0.9879,0.9928,0.9966,1.0021,1.0022,1.0046,1.0081,1.0122,1.0157,1.0119,1.0189,1.0191,1.0172,1.0221,1.0218,1.0266,1.021,1.0211,1.0212,0,0.9533,0.9585,0.9669,0.9733,0.9755,0.9797,0.9858,0.9903,0.996,0.9982,1.0025,1.0048,1.0107,1.0096,1.0177,1.0151,1.0182,1.0206,1.0209,1.0217,1.0203,1.023,1.0282,1.0289,1.0224,1.0223,1.0222,0,0.9546,0.9638,0.97,0.9727,0.9804,0.9832,0.9865,0.992,0.9956,1.001,1.0033,1.0094,1.0127,1.0173,1.0212,1.0201,1.029,1.0283,1.0311,1.0309,1.0328,1.0326,1.0385,1.0349,1.0349,1.0348,1.0348,0,0.9597,0.9648,0.9707,0.9745,0.9802,0.9842,0.9898,0.9933,0.9982,1.0028,1.0055,1.0098,1.0148,1.0197,1.0229,1.0291,1.0306,1.0326,1.0333,1.0323,1.032,1.0344,1.0341,1.035,1.035,1.035,1.0349,0,0.9622,0.9664,0.9733,0.9799,0.9817,0.9856,0.9913,0.9952,0.9986,1.0044,1.006,1.0114,1.0174,1.0218,1.0295,1.0317,1.0383,1.0391,1.0363,1.0367,1.0392,1.0389,1.0468,1.0481,1.0436,1.0436,1.0436,0,0.9652,0.9691,0.9761,0.9793,0.9825,0.9877,0.9913,0.9954,0.9991,1.0058,1.0088,1.0149,1.02,1.0294,1.0342,1.0401,1.0411,1.0434,1.042,1.0408,1.041,1.0407,1.0411,1.0436,1.0436,1.0437,1.0437,0,0.9699,0.9718,0.9768,0.9826,0.9868,0.9916,0.9964,0.9989,1.0039,1.0079,1.014,1.0179,1.0257,1.0318,1.0382,1.0417,1.0436,1.0441,1.045,1.044,1.0422,1.0431,1.0368,1.0439,1.0439,1.0439,1.0438,1.0438,0.9727,0.9763,0.9817,0.9873,0.9913,0.9957,0.9996,1.0035,1.0086,1.0152,1.0173,1.0236,1.0291,1.0379,1.0415,1.0465,1.0465,1.0479,1.0482,1.0485,1.0483,1.0414,1.0477,1.0477,1.0477,1.0477,1.0477,0,0.9776,0.9812,0.9862,0.9928,0.9972,0.9984,1.0038,1.0074,1.0128,1.0178,1.0227,1.0296,1.0355,1.0406,1.0467,1.0498,1.0507,1.0512,1.051,1.0518,1.0481,1.0466,1.0503,1.0503,1.0503,1.0503,1.0503,1.0503,0.9806,0.9867,0.9892,0.9973,1.0009,1.007,1.0099,1.0141,1.018,1.0256,1.0304,1.0337,1.0388,1.0452,1.0507,1.0521,1.0542,1.0544,1.056,1.0524,1.0521,1.0518,1.0504,1.0548,1.0549,1.0593,1.0593,1.0594]},{"header":{"parameterUnit":"m.s-1","parameterCategory":1,"la1":30.2991,"la2":30.254,"lo1":-89.0895,"lo2":-89.0444,"dy":0.0017,"dx":0.0017,"nx":28,"ny":28,"refTime":"2023-09-15T03:00:00:Z","depth":0,"parameterNumber":3,"parameterNumberName":"V-component_of_WINDS"},"data":[0,0,0,0,0,0,0,0,0,0,0,0,0,0,0,0,0,0,0,0,0,0,0,0,0,0,0,0,0,0,0,0,0,0,0,0,0,0,0,0,0,0,0,0,0,0,0,0,0,0,0,0,0,0,0,0,0,0,1.6978,1.6978,0,1.6997,1.6997,1.6997,1.6997,1.6997,1.6997,1.6997,1.7014,1.7015,1.7016,0,0,0,0,0,0,0,0,0,0,0,0,0,1.6936,1.6937,1.6978,1.6978,1.6978,1.6997,1.6997,1.6997,1.6997,1.6997,1.6997,1.6996,1.7014,1.7015,1.7016,0,0,0,0,0,0,0,0,0,0,0,0,0,1.6955,1.6937,1.6978,1.698,1.6981,1.6997,1.6997,1.6998,1.6997,1.6997,1.6997,1.6996,1.7014,1.7015,1.7016,1.703,0,0,1.7019,1.702,0,0,0,0,0,0,0,0,1.6954,1.6956,1.698,1.698,1.6981,1.6994,1.6989,1.7008,1.6998,1.6991,1.6997,1.6996,1.7008,1.7009,1.7014,1.7031,1.7031,1.7019,1.702,1.702,1.7021,0,0,0,0,0,0,0,1.6952,1.6955,1.6985,1.698,1.6981,1.6979,1.6981,1.6993,1.7001,1.6992,1.6992,1.6994,1.7008,1.7013,1.7014,1.7032,1.7019,1.702,1.7021,1.7021,1.7057,1.7057,0,0,0,0,0,0,1.6951,1.6954,1.6985,1.6986,1.6966,1.698,1.6983,1.699,1.7001,1.7002,1.6994,1.6994,1.7011,1.7013,1.7015,1.7029,1.702,1.7021,1.7022,1.7056,1.7057,1.7057,0,0,0,0,0,0,1.695,1.6954,1.6984,1.697,1.6974,1.6981,1.699,1.6991,1.6996,1.7003,1.7004,1.6998,1.7011,1.7013,1.7025,1.703,1.7022,1.7023,1.7056,1.7057,1.7057,1.706,0,0,0,0,0,0,1.6949,1.6953,1.696,1.697,1.6975,1.6996,1.699,1.6992,1.6998,1.6997,1.7007,1.7008,1.7011,1.7024,1.7026,1.7031,1.7024,1.7056,1.7056,1.7057,1.706,1.7061,1.7062,0,0,0,0,0,1.6947,1.6961,1.6961,1.6964,1.6983,1.6996,1.6998,1.7002,1.6998,1.7004,1.7008,1.7008,1.7029,1.7025,1.7028,1.7033,1.7055,1.7056,1.7057,1.706,1.7061,1.7062,0,0,0,0,0,0,1.6951,1.6962,1.6962,1.698,1.6987,1.6996,1.7004,1.7004,1.7012,1.7011,1.7014,1.7016,1.7028,1.7032,1.7027,1.7045,1.7042,1.7043,1.7043,1.7044,1.7045,1.7043,1.7024,0,0,0,0,0,1.6954,1.6965,1.6973,1.6987,1.6991,1.6996,1.7002,1.7004,1.7011,1.7014,1.702,1.7026,1.7034,1.7039,1.7047,1.706,1.7061,1.7065,1.7066,1.7067,1.7068,1.7072,1.7073,1.7059,1.7059,1.7059,0,0,1.696,1.6967,1.6974,1.6988,1.6994,1.7003,1.6999,1.701,1.7016,1.7016,1.7027,1.7031,1.7038,1.705,1.7055,1.7054,1.7071,1.7068,1.7068,1.7069,1.7073,1.7074,1.7075,1.706,1.706,1.706,0,0,1.6976,1.6983,1.6994,1.7,1.7008,1.7011,1.7014,1.7022,1.7025,1.7036,1.7035,1.7042,1.7056,1.706,1.7064,1.7077,1.7076,1.7079,1.7084,1.7088,1.7089,1.709,1.7093,1.7094,1.708,1.708,1.708,0,1.6982,1.6997,1.7,1.701,1.7015,1.7015,1.7024,1.7029,1.704,1.7042,1.704,1.7056,1.7061,1.7072,1.7075,1.7079,1.708,1.7078,1.7089,1.709,1.7091,1.7093,1.7095,1.708,1.708,1.708,1.708,0,1.7003,1.7013,1.702,1.703,1.7036,1.7046,1.7048,1.7053,1.7054,1.7056,1.7066,1.7071,1.7079,1.7081,1.7082,1.7092,1.709,1.7089,1.7085,1.7092,1.7095,1.7096,1.7081,1.7081,1.7081,1.708,0,0,1.7023,1.7032,1.7035,1.7038,1.7045,1.7052,1.706,1.7068,1.7071,1.7077,1.7083,1.7093,1.7091,1.7095,1.7096,1.71,1.7106,1.7097,1.7097,1.7097,1.7114,1.7115,1.7117,1.7105,1.7106,1.7106,1.7113,0,1.7038,1.7054,1.7055,1.7069,1.7076,1.7074,1.7081,1.7085,1.7087,1.7092,1.7094,1.71,1.7097,1.71,1.7103,1.7105,1.711,1.7104,1.7109,1.7109,1.7107,1.7118,1.712,1.7127,1.7114,1.7115,1.7115,0,1.7058,1.7064,1.7078,1.7082,1.7085,1.7091,1.7096,1.7102,1.7106,1.7106,1.7109,1.7109,1.7115,1.7111,1.7118,1.7114,1.7116,1.7116,1.7117,1.7117,1.7112,1.7118,1.7129,1.713,1.7117,1.7116,1.7116,0,1.7069,1.7081,1.709,1.7092,1.7098,1.7101,1.7103,1.7107,1.711,1.7114,1.7116,1.712,1.7123,1.7125,1.7125,1.7122,1.7131,1.7128,1.7131,1.7131,1.7133,1.7133,1.7144,1.7135,1.7135,1.7135,1.7135,0,1.7085,1.7093,1.7094,1.71,1.7107,1.7108,1.7115,1.7117,1.7119,1.7124,1.7122,1.7126,1.7126,1.7129,1.7129,1.7134,1.7135,1.7135,1.7134,1.7135,1.7134,1.7136,1.7135,1.7135,1.7135,1.7135,1.7135,0,1.7099,1.71,1.7109,1.7113,1.7113,1.7119,1.7121,1.7125,1.7126,1.7131,1.7132,1.7133,1.7136,1.7136,1.7141,1.714,1.7146,1.7145,1.7144,1.7144,1.7147,1.7146,1.7159,1.716,1.7151,1.7151,1.7151,0,1.7108,1.7114,1.7118,1.712,1.7122,1.7127,1.713,1.713,1.7132,1.7135,1.7138,1.7142,1.7145,1.715,1.715,1.7152,1.7151,1.7155,1.7152,1.7151,1.715,1.7149,1.7149,1.7156,1.7156,1.7156,1.7157,0,1.7125,1.7124,1.7129,1.7132,1.7135,1.7139,1.7141,1.7143,1.7143,1.7146,1.7149,1.7151,1.7154,1.7157,1.7159,1.7159,1.7157,1.7157,1.7158,1.7158,1.7157,1.7156,1.7145,1.7157,1.7157,1.7157,1.7157,1.7157,1.7135,1.7139,1.7142,1.7146,1.7147,1.7149,1.7153,1.7153,1.7156,1.7159,1.7158,1.7161,1.7162,1.7164,1.7165,1.7166,1.7165,1.7166,1.7166,1.7166,1.7166,1.7157,1.7167,1.7167,1.7167,1.7167,1.7167,0,1.715,1.7151,1.7155,1.7158,1.716,1.7158,1.716,1.7162,1.7165,1.7166,1.7168,1.7171,1.7173,1.7172,1.7173,1.7174,1.7173,1.7175,1.7174,1.7174,1.7168,1.7167,1.7175,1.7175,1.7175,1.7175,1.7175,1.7175,1.7158,1.7164,1.7163,1.7169,1.717,1.7173,1.7174,1.7175,1.7175,1.7179,1.718,1.718,1.7179,1.718,1.7181,1.7181,1.7181,1.7182,1.7181,1.7176,1.7175,1.7174,1.7173,1.7182,1.7182,1.7187,1.7187,1.7187]}]]